Regional Weather Roundup
Issued by NWS

Home | Current Version | Previous Version | Graphics & Text | Print | Product List | Glossary On
Versions: 1 2 3 4 5 6 7 8 9 10 11 12 13 14 15 16 17 18 19 20 21 22 23 24 25 26 27 28 29 30 31 32 33 34 35 36 37 38 39 40 41 42 43 44 45 46 47 48 49 50
293
ASUS43 KMKX 271800
RWRWI

WISCONSIN REGIONAL WEATHER ROUNDUP
NATIONAL WEATHER SERVICE MILWAUKEE/SULLIVAN WI
100 PM CDT WED JUL 27 2016

NOTE: "FAIR" INDICATES FEW OR NO CLOUDS BELOW 12,000 FEET WITH NO
SIGNIFICANT WEATHER AND/OR OBSTRUCTIONS TO VISIBILITY.

WIZ001-002-006>008-014>016-023>028-271900-
NORTHWEST WISCONSIN

CITY           SKY/WX    TMP DP  RH WIND       PRES   REMARKS
SUPERIOR ARPT  LGT RAIN  63  60  91 NE8       30.02F
ASHLAND        CLOUDY    66  62  87 N7        30.03R
6HR MIN TEMP:  66; 6HR MAX TEMP:  72; 6HR PCP:  0.02;

HAYWARD        LGT RAIN  70  66  87 NE7       30.00F
6HR MIN TEMP:  65; 6HR MAX TEMP:  71; 6HR PCP:  0.13;

SIREN          NOT AVBL
CUMBERLAND     CLOUDY    72  64  78 SE6       29.98F
RICE LAKE      CLOUDY    76  65  70 E7        30.00S
CHETEK         CLOUDY    75  67  75 MISG      29.99S
LADYSMITH      CLOUDY    75  65  69 CALM      30.03S
EAU CLAIRE     NOT AVBL
MENOMONIE      PTSUNNY   80  69  69 E7        29.97F HX  83
6HR MIN TEMP:  70; 6HR MAX TEMP:  82;

NEW RICHMOND   PTSUNNY   79  66  65 S6        29.96S HX  81
OSCEOLA        CLOUDY    78  71  77 S6        29.98S HX  81
$$

WIZ003>005-009-010-017-018-271900-
NORTH CENTRAL WISCONSIN

CITY           SKY/WX    TMP DP  RH WIND       PRES   REMARKS
MANITOWISH WTR CLOUDY    71  67  90 CALM      30.04S
ARBOR VITAE    CLOUDY    72  66  81 CALM      30.03F
WOODRUFF       CLOUDY    72  66  81 CALM      30.03F
RHINELANDER    PTSUNNY   72  64  76 N3        30.04R
6HR MIN TEMP:  64; 6HR MAX TEMP:  74; 6HR PCP:  0.16;

EAGLE RIVER    PTSUNNY   70  67  89 SW5       30.03R
LAND O LAKES   CLOUDY    68  66  93 CALM      30.04R
PHILLIPS       CLOUDY    70  66  89 CALM      30.02S
TOMAHAWK       CLOUDY    69  65  88 CALM      30.03F
MEDFORD        PTSUNNY   71  67  88 SE5       30.02S
MERRILL        CLOUDY    71  67  88 CALM      30.03R
$$

WIZ029-030-035-036-043>047-271900-
CENTRAL WISCONSIN

CITY           SKY/WX    TMP DP  RH WIND       PRES   REMARKS
WAUSAU         PTSUNNY   76  67  73 S6        30.00S
6HR MIN TEMP:  65; 6HR MAX TEMP:  76; 6HR PCP:  0.24;

MOSINEE        SUNNY     77  68  73 CALM      30.03S
MARSHFIELD     PTSUNNY   81  66  60 CALM      30.00F HX  83
6HR MIN TEMP:  69; 6HR MAX TEMP:  81;

STEVENS POINT  MOSUNNY   76  66  69 SE8       30.02F
WAUPACA        LGT RAIN  71  70  97 CALM      30.02F
WAUTOMA        LGT RAIN  69  66  90 E8        30.02S
6HR MIN TEMP:  67; 6HR MAX TEMP:  84; 6HR PCP:  0.22;

WISC RAPIDS    MOSUNNY   81  64  56 E6        30.02F HX  82
6HR MIN TEMP:  70; 6HR MAX TEMP:  82; 6HR PCP: TRACE;

CAMP DOUGLAS   NOT AVBL
$$

WIZ011>013-019>022-031-037>040-048>050-271900-
NORTHEAST WISCONSIN

CITY           SKY/WX    TMP DP  RH WIND       PRES   REMARKS
ANTIGO         CLOUDY    69  66  89 CALM      30.04S
SHAWANO        PTSUNNY   73  67  82 CALM      30.02F
OCONTO         CLOUDY    71  71  99 W5        30.01F
STURGEON BAY   NOT AVBL
GREEN BAY      LGT RAIN  73  68  84 NW5       30.02F
6HR MIN TEMP:  70; 6HR MAX TEMP:  82; 6HR PCP: TRACE;

MANITOWOC      NOT AVBL
APPLETON       DRIZZLE   72  64  78 VRB6      30.01F
CLINTONVILLE   CLOUDY    72  64  78 NE6       30.01F
OSHKOSH        LGT RAIN  73  68  84 NE15G24   30.01S
6HR MIN TEMP:  72; 6HR MAX TEMP:  86; 6HR PCP:  0.21;

$$

WIZ032>034-041-042-053>061-271900-
SOUTHWEST WISCONSIN

CITY           SKY/WX    TMP DP  RH WIND       PRES   REMARKS
LA CROSSE      CLOUDY    84  67  56 S8        29.97F HX  86
6HR MIN TEMP:  73; 6HR MAX TEMP:  86;

SPARTA         CLOUDY    82  68  60 S7        30.00S HX  85
VIROQUA        CLOUDY    81  65  58 CALM      30.02S HX  83
6HR MIN TEMP:  68; 6HR MAX TEMP:  82;

BOSCOBEL       CLOUDY    85  67  54 CALM      30.00R HX  87
6HR MIN TEMP:  67; 6HR MAX TEMP:  86;

PRAIRIE DU CHI PTSUNNY   82  65  54 S3        29.99S HX  84
PLATTEVILLE    MOSUNNY   82  69  64 S8        30.02S HX  85
$$

WIZ056-057-062-063-064-067-068-271900-
SOUTH CENTRAL WISCONSIN

CITY           SKY/WX    TMP DP  RH WIND       PRES   REMARKS
REEDSBURG      PTSUNNY   83  71  66 SW6       29.99F HX  88
BARABOO/DELLS  MOSUNNY   84  65  54 CALM      30.00F HX  85
LONE ROCK      NOT AVBL
MINERAL POINT  CLOUDY    82  68  61 S6        30.02F HX  85
MADISON        PTSUNNY   85  66  53 SW6       29.99F HX  87
6HR MIN TEMP:  70; 6HR MAX TEMP:  85;

MIDDLETON      PTSUNNY   84  67  57 CALM      30.01F HX  86
WATERTOWN      PTSUNNY   84  70  63 SW7       30.01S HX  88
MONROE         MOSUNNY   82  63  51 S7        30.02F HX  83
JANESVILLE     PTSUNNY   84  64  51 W9        30.02  HX  86
$$

WIZ051-052-058>065-066-070>072-271900-
SOUTHEAST WISCONSIN

CITY           SKY/WX    TMP DP  RH WIND       PRES   REMARKS
MILWAUKEE      PTSUNNY   87  67  51 VRB5      29.99F HX  90
6HR MIN TEMP:  76; 6HR MAX TEMP:  89;

WAUKESHA       MOSUNNY   82  66  57 W7        30.03S HX  85
MILWAUKEE/TIMM MOSUNNY   88  63  42 SW7       30.00F HX  88
RACINE         MOSUNNY   86  67  52 VRB5      30.02F HX  89
6HR MIN TEMP:  72; 6HR MAX TEMP:  87;

BURLINGTON     MOSUNNY   85  65  50 W5        30.02S HX  87
KENOSHA        MOSUNNY   85  66  53 NW6       30.01F HX  87
6HR MIN TEMP:  71; 6HR MAX TEMP:  87;

FOND DU LAC    CLOUDY    81  67  62 NE24G33   30.01R HX  83
6HR MIN TEMP:  70; 6HR MAX TEMP:  86;

SHEBOYGAN      CLOUDY    77  68  73 E10       29.99F THUNDER
6HR MIN TEMP:  73; 6HR MAX TEMP:  85;

WEST BEND      CLOUDY    86  66  51 SW7       29.99F HX  88
JUNEAU         MOSUNNY   82  70  66 W5        30.02S HX  86
$$

LSZ147-162-271900-
LAKE SUPERIOR

STATION/POSITION TIME  TEMP    WIND        PRES    WAVE
                       AIR SEA DIR/SP/G            HT/PER
                 (UTC) (F)     (DEG/KT/KT) (MB)    (FT/S)
W MID LAKE BUOY  1650   62 60   50/ 14/ 17 1016.3F   1/ 3
DEVILS ISLAND    1700   63      70/ 17/ 21 1016.6R
PORT WING        1700   68      30/ 14/ 18 1016.3S
SAXON HARBOR     1740   69      50/  8/ 14 1015.6S
$$

LMZ867-665-643>646-271900-
LAKE MICHIGAN

STATION/POSITION TIME  TEMP    WIND        PRES    WAVE
                       AIR SEA DIR/SP/G            HT/PER
                 (UTC) (F)     (DEG/KT/KT) (MB)    (FT/S)
CHAMBERS ISLAND  1700   75     300/  6/ 12 1016.3R
N MID LAKE BUOY  1650   71 70  290/  4/  6 1014.9S   1
NORTHPORT PIER   1700   73     290/  4/  7 1016.3R
SISTER BAY       1721   76     310/ 11/ 12   N/A
ALGOMA LAKESHORE 1713          330/ 14/ 21   N/A
KEWAUNEE LAKESHO 1700   81     340/ 12/ 15 1015.6F
SHEBOYGAN LAKESH 1700   74     130/  4/  5 1015.8F
PORT WASHINGTON  1700   75     150/  4/ 10 1016.3R
ATWATER BUOY     1700   70 61  170/  6/  8 1017.5S
MILWAUKEE LAKESH 1710   72     140/  4/  8   N/A
S MID LAKE BUOY  1650   76 76  260/  4/  4 1015.7R   0
KENOSHA   LAKESH 1700   77     140/  7/  9 1015.9R
$$

TC  - TEMPERATURE IN CELSIUS
VSB - VISIBILITY IN STATUTE MILES
WCI - WIND CHILL INDEX
HX  - HEAT INDEX





USA.gov is the U.S. government's official web portal to all federal, state and local government web resources and services.